This demonstration page uses our WeatherBlox Daily Observations layout. Learn more.

Left ArrowRight Arrow

Hourly Observations for August 17, 2020

Temp ( °F °C ) Dew Point ( °F °C ) Humidity (%) Winds ( mph kmh ) Pressure ( in mb ) Visibility ( mi km ) Precip ( " mm )
12:53 am 00:53 Clear 66 18.9 63 17.2 90 90 Calm 30.16 1021 10 16 0.00 0.00
1:53 am 01:53 Clear 64 17.8 62 16.7 93 93 WSW 6 9 30.17 1022 10 16 0.00 0.00
2:53 am 02:53 Clear 65 18.3 61 16.1 87 87 W 3 6 30.17 1022 10 16 0.00 0.00
3:53 am 03:53 Clear 64 17.8 61 16.1 90 90 W 5 7 30.16 1022 10 16 0.00 0.00
4:53 am 04:53 Clear 63 17.2 61 16.1 93 93 NW 3 6 30.17 1022 10 16 0.00 0.00
5:53 am 05:53 Clear 62 16.7 60 15.6 93 93 WNW 6 9 30.17 1022 10 16 0.00 0.00
6:53 am 06:53 Sunny 62 16.7 60 15.6 93 93 Calm 30.19 1022 8 13 0.00 0.00
7:53 am 07:53 Sunny 65 18.3 61 16.1 87 87 WNW 5 7 30.21 1023 10 16 0.00 0.00
8:53 am 08:53 Sunny 71 21.7 64 17.8 79 79 NNE 5 7 30.22 1023 10 16 0.00 0.00
9:53 am 09:53 Sunny 74 23.3 64 17.8 71 71 N 7 11 30.22 1024 10 16 0.00 0.00
10:53 am 10:53 Sunny 79 26.1 64 17.8 60 60 VRB 5 7 30.23 1024 10 16 0.00 0.00
11:53 am 11:53 Sunny 82 27.8 62 16.7 51 51 VRB 3 6 30.22 1023 10 16 0.00 0.00
12:53 pm 12:53 Sunny 84 28.9 60 15.6 44 44 N 5 7 30.22 1023 10 16 0.00 0.00
1:53 pm 13:53 Sunny 85 29.4 59 15 42 42 N 5 7 30.19 1022 10 16 0.00 0.00
2:53 pm 14:53 Sunny 86 30 58 14.4 39 39 Calm 30.17 1022 10 16 0.00 0.00
3:53 pm 15:53 Sunny 86 30 59 15 40 40 NNW 6 9 30.16 1021 10 16 0.00 0.00
4:53 pm 16:53 Sunny 87 30.6 60 15.6 40 40 VRB 3 6 30.14 1021 10 16 0.00 0.00
5:53 pm 17:53 Sunny 87 30.6 60 15.6 40 40 Calm 30.13 1020 10 16 0.00 0.00
6:53 pm 18:53 Sunny 86 30 59 15 40 40 Calm 30.13 1020 10 16 0.00 0.00
7:53 pm 19:53 Sunny 80 26.7 64 17.8 58 58 ENE 6 9 30.14 1021 10 16 0.00 0.00
8:53 pm 20:53 Clear 77 25 64 17.8 64 64 Calm 30.15 1021 10 16 0.00 0.00
9:53 pm 21:53 Clear 73 22.8 64 17.8 74 74 Calm 30.16 1021 10 16 0.00 0.00
10:53 pm 22:53 Clear 70 21.1 64 17.8 82 82 WSW 3 6 30.16 1021 10 16 0.00 0.00
11:53 pm 23:53 Clear 70 21.1 63 17.2 79 79 Calm 30.15 1021 10 16 0.00 0.00

Powered by AerisWeather